Regional Weather Roundup
Issued by NWS

Home | Current Version | Previous Version | Graphics & Text | Print | Product List | Glossary On
Versions: 1 2 3 4 5 6 7 8 9 10 11 12 13 14 15 16 17 18 19 20 21 22 23 24 25 26 27 28 29 30 31 32 33 34 35 36 37 38 39 40 41 42 43 44 45 46 47 48 49 50
000
ASUS43 KLMK 210202
RWRKY
KENTUCKY REGIONAL WEATHER ROUNDUP
NATIONAL WEATHER SERVICE LOUISVILLE KY
1000 PM EDT MON OCT 20 2014

NOTE "FAIR" INDICATES FEW OR NO CLOUDS BELOW 12,000 FEET
WITH NO SIGNIFICANT WEATHER AND/OR OBSTRUCTIONS TO VISIBILITY.

KYZ001>023-026-027-061>063-070>075-210300-
WESTERN AND SOUTH CENTRAL KENTUCKY

CITY           SKY/WX    TMP DP  RH WIND       PRES   REMARKS
PADUCAH        PTCLDY    59  54  83 SW7       29.98R
HENDERSON      CLEAR     59  45  58 W5        29.97R
OWENSBORO      CLEAR     61  54  77 W6        29.96R
HOPKINSVILLE   CLEAR     58  54  88 SW3       29.99R
BOWLING GREEN  PTCLDY    59  50  72 SW5       29.98S
GLASGOW        NOT AVBL
$$

KYZ024-025-028>034-038-045-046-053-210300-
NORTH CENTRAL KENTUCKY

CITY           SKY/WX    TMP DP  RH WIND       PRES   REMARKS
LOUISVILLE/SDF MOCLDY    59  54  83 SW10      29.93R
LOUISVILLE/LOU PTCLDY    57  55  93 CALM      29.93S FOG
FORT KNOX      MOCLDY    60  52  75 SW7       29.93R
$$

KYZ035>037-039>044-047>052-055>060-089>105-210300-
NORTHEAST KENTUCKY

CITY           SKY/WX    TMP DP  RH WIND       PRES   REMARKS
LEXINGTON      PTCLDY    57  48  72 S9        29.94S
COVINGTON      PTCLDY    57  50  77 SW6       29.90R
FRANKFORT      MOCLDY    58  49  72 SW6       29.93R
$$

KYZ054-064>069-076>088-106>120-210300-
SOUTHEAST KENTUCKY

CITY           SKY/WX    TMP DP  RH WIND       PRES   REMARKS
JACKSON        CLEAR     51  48  89 CALM      29.97R
LONDON         CLEAR     56  47  71 SW3       30.00R
SOMERSET       CLEAR     46  46 100 CALM      30.01R
MIDDLESBORO    NOT AVBL
MONTICELLO     CLEAR     45  44  96 CALM      30.02R
$$




USA.gov is the U.S. government's official web portal to all federal, state and local government web resources and services.